Year,Month,Day,Hour,Minute,Value (Times are PST for temperature in C)
2010,08,23,00,00,13.30
2010,08,23,00,01,13.30
2010,08,23,00,02,13.30
2010,08,23,00,03,13.40
2010,08,23,00,04,13.40
2010,08,23,00,05,13.40
2010,08,23,00,06,13.40
2010,08,23,00,07,13.40
2010,08,23,00,08,13.40
2010,08,23,00,09,13.40
2010,08,23,00,10,13.40
2010,08,23,00,11,13.40
2010,08,23,00,12,13.40
2010,08,23,00,13,13.40
2010,08,23,00,14,13.40
2010,08,23,00,15,13.40
2010,08,23,00,16,13.40
2010,08,23,00,17,13.40
2010,08,23,00,18,13.40
2010,08,23,00,19,13.40
2010,08,23,00,20,13.40
2010,08,23,00,21,13.40
2010,08,23,00,22,13.40
2010,08,23,00,23,13.40
2010,08,23,00,24,13.40
2010,08,23,00,25,13.40
2010,08,23,00,26,13.40
2010,08,23,00,27,13.40
2010,08,23,00,28,13.40
2010,08,23,00,29,13.40
2010,08,23,00,30,13.40
2010,08,23,00,31,13.40
2010,08,23,00,32,13.40
2010,08,23,00,33,13.40
2010,08,23,00,34,13.40
2010,08,23,00,35,13.40
2010,08,23,00,36,13.40
2010,08,23,00,37,13.40
2010,08,23,00,38,13.40
2010,08,23,00,39,13.40
2010,08,23,00,40,13.40
2010,08,23,00,41,13.40
2010,08,23,00,42,13.40
2010,08,23,00,43,13.40
2010,08,23,00,44,13.40
2010,08,23,00,45,13.40
2010,08,23,00,46,13.40
2010,08,23,00,47,13.40
2010,08,23,00,48,13.40
2010,08,23,00,49,13.40
2010,08,23,00,50,13.40
2010,08,23,00,51,13.40
2010,08,23,00,52,13.40
2010,08,23,00,53,13.40
2010,08,23,00,54,13.40
2010,08,23,00,55,13.40
2010,08,23,00,56,13.40
2010,08,23,00,57,13.40
2010,08,23,00,58,13.40
2010,08,23,00,59,13.40
2010,08,23,01,00,13.40
2010,08,23,01,01,13.40
2010,08,23,01,02,13.30
2010,08,23,01,03,13.40
2010,08,23,01,04,13.40
2010,08,23,01,05,13.30
2010,08,23,01,06,13.30
2010,08,23,01,07,13.30
2010,08,23,01,08,13.30
2010,08,23,01,09,13.30
2010,08,23,01,10,13.30
2010,08,23,01,11,13.30
2010,08,23,01,12,13.30
2010,08,23,01,13,13.30
2010,08,23,01,14,13.30
2010,08,23,01,15,13.30
2010,08,23,01,16,13.30
2010,08,23,01,17,13.20
2010,08,23,01,18,13.20
2010,08,23,01,19,13.20
2010,08,23,01,20,13.20
2010,08,23,01,21,13.20
2010,08,23,01,22,13.20
2010,08,23,01,23,13.20
2010,08,23,01,24,13.20
2010,08,23,01,25,13.20
2010,08,23,01,26,13.20
2010,08,23,01,27,13.10
2010,08,23,01,28,13.10
2010,08,23,01,29,13.10
2010,08,23,01,30,13.10
2010,08,23,01,31,13.10
2010,08,23,01,32,13.10
2010,08,23,01,33,13.10
2010,08,23,01,34,13.10
2010,08,23,01,35,13.10
2010,08,23,01,36,13.10
2010,08,23,01,37,13.00
2010,08,23,01,38,13.00
2010,08,23,01,39,13.00
2010,08,23,01,40,13.00
2010,08,23,01,41,13.00
2010,08,23,01,42,13.00
2010,08,23,01,43,13.00
2010,08,23,01,44,13.00
2010,08,23,01,45,12.90
2010,08,23,01,46,12.90
2010,08,23,01,47,12.90
2010,08,23,01,48,12.90
2010,08,23,01,49,12.90
2010,08,23,01,50,12.90
2010,08,23,01,51,12.90
2010,08,23,01,52,12.90
2010,08,23,01,53,12.90
2010,08,23,01,54,12.90
2010,08,23,01,55,12.90
2010,08,23,01,56,12.90
2010,08,23,01,57,12.90
2010,08,23,01,58,12.90
2010,08,23,01,59,12.90
2010,08,23,02,00,12.90
2010,08,23,02,01,12.90
2010,08,23,02,02,12.90
2010,08,23,02,03,12.90
2010,08,23,02,04,12.80
2010,08,23,02,05,12.80
2010,08,23,02,06,12.80
2010,08,23,02,07,12.80
2010,08,23,02,08,12.80
2010,08,23,02,09,12.70
2010,08,23,02,10,12.70
2010,08,23,02,11,12.70
2010,08,23,02,12,12.70
2010,08,23,02,13,12.70
2010,08,23,02,14,12.60
2010,08,23,02,15,12.60
2010,08,23,02,16,12.60
2010,08,23,02,17,12.60
2010,08,23,02,18,12.60
2010,08,23,02,19,12.50
2010,08,23,02,20,12.50
2010,08,23,02,21,12.40
2010,08,23,02,22,12.40
2010,08,23,02,23,12.40
2010,08,23,02,24,12.40
2010,08,23,02,25,12.40
2010,08,23,02,26,12.30
2010,08,23,02,27,12.30
2010,08,23,02,28,12.30
2010,08,23,02,29,12.30
2010,08,23,02,30,12.30
2010,08,23,02,31,12.30
2010,08,23,02,32,12.30
2010,08,23,02,33,12.30
2010,08,23,02,34,12.30
2010,08,23,02,35,12.30
2010,08,23,02,36,12.30
2010,08,23,02,37,12.30
2010,08,23,02,38,12.30
2010,08,23,02,39,12.30
2010,08,23,02,40,12.30
2010,08,23,02,41,12.30
2010,08,23,02,42,12.30
2010,08,23,02,43,12.30
2010,08,23,02,44,12.30
2010,08,23,02,45,12.30
2010,08,23,02,46,12.40
2010,08,23,02,47,12.40
2010,08,23,02,48,12.40
2010,08,23,02,49,12.40
2010,08,23,02,50,12.40
2010,08,23,02,51,12.40
2010,08,23,02,52,12.40
2010,08,23,02,53,12.40
2010,08,23,02,54,12.40
2010,08,23,02,55,12.40
2010,08,23,02,56,12.40
2010,08,23,02,57,12.40
2010,08,23,02,58,12.40
2010,08,23,02,59,12.40
2010,08,23,03,00,12.40
2010,08,23,03,01,12.40
2010,08,23,03,02,12.40
2010,08,23,03,03,12.40
2010,08,23,03,06,12.40
2010,08,23,03,07,12.40
2010,08,23,03,08,12.40
2010,08,23,03,09,12.40
2010,08,23,03,10,12.30
2010,08,23,03,11,12.30
2010,08,23,03,12,12.30
2010,08,23,03,13,12.30
2010,08,23,03,14,12.30
2010,08,23,03,15,12.30
2010,08,23,03,16,12.30
2010,08,23,03,17,12.30
2010,08,23,03,18,12.20
2010,08,23,03,19,12.20
2010,08,23,03,20,12.20
2010,08,23,03,21,12.20
2010,08,23,03,22,12.20
2010,08,23,03,23,12.10
2010,08,23,03,24,12.10
2010,08,23,03,25,12.10
2010,08,23,03,26,12.10
2010,08,23,03,27,12.00
2010,08,23,03,28,12.00
2010,08,23,03,29,11.90
2010,08,23,03,30,11.90
2010,08,23,03,31,11.90
2010,08,23,03,32,11.90
2010,08,23,03,33,11.80
2010,08,23,03,34,11.80
2010,08,23,03,35,11.70
2010,08,23,03,36,11.70
2010,08,23,03,37,11.70
2010,08,23,03,38,11.60
2010,08,23,03,39,11.60
2010,08,23,03,40,11.60
2010,08,23,03,41,11.60
2010,08,23,03,42,11.60
2010,08,23,03,43,11.50
2010,08,23,03,44,11.50
2010,08,23,03,45,11.50
2010,08,23,03,46,11.40
2010,08,23,03,47,11.40
2010,08,23,03,48,11.40
2010,08,23,03,49,11.40
2010,08,23,03,50,11.40
2010,08,23,03,51,11.30
2010,08,23,03,52,11.30
2010,08,23,03,53,11.30
2010,08,23,03,54,11.30
2010,08,23,03,55,11.30
2010,08,23,03,56,11.30
2010,08,23,03,57,11.30
2010,08,23,03,58,11.20
2010,08,23,03,59,11.20
2010,08,23,04,00,11.20
2010,08,23,04,01,11.20
2010,08,23,04,02,11.20
2010,08,23,04,03,11.20
2010,08,23,04,04,11.20
2010,08,23,04,05,11.20
2010,08,23,04,06,11.20
2010,08,23,04,07,11.20
2010,08,23,04,08,11.20
2010,08,23,04,09,11.20
2010,08,23,04,10,11.20
2010,08,23,04,11,11.20
2010,08,23,04,12,11.20
2010,08,23,04,13,11.20
2010,08,23,04,14,11.10
2010,08,23,04,15,11.10
2010,08,23,04,16,11.10
2010,08,23,04,17,11.10
2010,08,23,04,18,11.10
2010,08,23,04,19,11.10
2010,08,23,04,20,11.10
2010,08,23,04,21,11.10
2010,08,23,04,22,11.10
2010,08,23,04,23,11.10
2010,08,23,04,24,11.10
2010,08,23,04,25,11.10
2010,08,23,04,26,11.10
2010,08,23,04,27,11.10
2010,08,23,04,28,11.10
2010,08,23,04,29,11.10
2010,08,23,04,30,11.10
2010,08,23,04,31,11.00
2010,08,23,04,32,11.00
2010,08,23,04,33,11.00
2010,08,23,04,34,11.00
2010,08,23,04,35,10.90
2010,08,23,04,36,10.90
2010,08,23,04,37,10.90
2010,08,23,04,38,10.90
2010,08,23,04,39,10.90
2010,08,23,04,40,10.90
2010,08,23,04,41,10.90
2010,08,23,04,42,10.90
2010,08,23,04,43,10.90
2010,08,23,04,44,10.90
2010,08,23,04,45,10.80
2010,08,23,04,46,10.80
2010,08,23,04,47,10.80
2010,08,23,04,48,10.80
2010,08,23,04,49,10.80
2010,08,23,04,50,10.80
2010,08,23,04,51,10.80
2010,08,23,04,52,10.80
2010,08,23,04,53,10.80
2010,08,23,04,54,10.70
2010,08,23,04,55,10.70
2010,08,23,04,56,10.70
2010,08,23,04,57,10.70
2010,08,23,04,58,10.70
2010,08,23,04,59,10.70
2010,08,23,05,00,10.70
2010,08,23,05,01,10.70
2010,08,23,05,02,10.60
2010,08,23,05,03,10.60
2010,08,23,05,04,10.60
2010,08,23,05,05,10.60
2010,08,23,05,06,10.60
2010,08,23,05,07,10.60
2010,08,23,05,08,10.60
2010,08,23,05,09,10.60
2010,08,23,05,10,10.60
2010,08,23,05,11,10.60
2010,08,23,05,12,10.50
2010,08,23,05,13,10.50
2010,08,23,05,14,10.50
2010,08,23,05,15,10.50
2010,08,23,05,16,10.50
2010,08,23,05,17,10.50
2010,08,23,05,18,10.50
2010,08,23,05,19,10.50
2010,08,23,05,20,10.50
2010,08,23,05,21,10.50
2010,08,23,05,22,10.60
2010,08,23,05,23,10.60
2010,08,23,05,24,10.60
2010,08,23,05,25,10.60
2010,08,23,05,26,10.60
2010,08,23,05,27,10.60
2010,08,23,05,28,10.60
2010,08,23,05,29,10.60
2010,08,23,05,30,10.60
2010,08,23,05,31,10.70
2010,08,23,05,32,10.70
2010,08,23,05,33,10.70
2010,08,23,05,34,10.70
2010,08,23,05,35,10.70
2010,08,23,05,36,10.70
2010,08,23,05,37,10.70
2010,08,23,05,38,10.70
2010,08,23,05,39,10.70
2010,08,23,05,40,10.80
2010,08,23,05,41,10.80
2010,08,23,05,42,10.80
2010,08,23,05,43,10.80
2010,08,23,05,44,10.80
2010,08,23,05,45,10.80
2010,08,23,05,46,10.80
2010,08,23,05,47,10.80
2010,08,23,05,48,10.80
2010,08,23,05,49,10.80
2010,08,23,05,50,10.80
2010,08,23,05,51,10.80
2010,08,23,05,52,10.70
2010,08,23,05,53,10.70
2010,08,23,05,54,10.70
2010,08,23,05,55,10.70
2010,08,23,05,56,10.70
2010,08,23,05,57,10.70
2010,08,23,05,58,10.70
2010,08,23,05,59,10.70
2010,08,23,06,00,10.70
2010,08,23,06,01,10.70
2010,08,23,06,02,10.70
2010,08,23,06,03,10.70
2010,08,23,06,04,10.70
2010,08,23,06,05,10.70
2010,08,23,06,06,10.70
2010,08,23,06,07,10.70
2010,08,23,06,08,10.70
2010,08,23,06,09,10.70
2010,08,23,06,10,10.60
2010,08,23,06,11,10.60
2010,08,23,06,12,10.60
2010,08,23,06,13,10.60
2010,08,23,06,14,10.60
2010,08,23,06,15,10.60
2010,08,23,06,16,10.60
2010,08,23,06,17,10.60
2010,08,23,06,18,10.60
2010,08,23,06,19,10.60
2010,08,23,06,20,10.60
2010,08,23,06,21,10.60
2010,08,23,06,22,10.60
2010,08,23,06,23,10.60
2010,08,23,06,24,10.60
2010,08,23,06,25,10.60
2010,08,23,06,26,10.60
2010,08,23,06,27,10.60
2010,08,23,06,28,10.70
2010,08,23,06,29,10.60
2010,08,23,06,30,10.70
2010,08,23,06,31,10.70
2010,08,23,06,32,10.70
2010,08,23,06,33,10.70
2010,08,23,06,34,10.70
2010,08,23,06,35,10.70
2010,08,23,06,36,10.70
2010,08,23,06,37,10.70
2010,08,23,06,38,10.70
2010,08,23,06,39,10.70
2010,08,23,06,40,10.70
2010,08,23,06,41,10.70
2010,08,23,06,42,10.70
2010,08,23,06,43,10.70
2010,08,23,06,44,10.70
2010,08,23,06,45,10.70
2010,08,23,06,46,10.70
2010,08,23,06,47,10.70
2010,08,23,06,48,10.70
2010,08,23,06,49,10.70
2010,08,23,06,50,10.70
2010,08,23,06,51,10.70
2010,08,23,06,52,10.70
2010,08,23,06,53,10.80
2010,08,23,06,54,10.80
2010,08,23,06,55,10.80
2010,08,23,06,56,10.80
2010,08,23,06,57,10.80
2010,08,23,06,58,10.80
2010,08,23,06,59,10.80
2010,08,23,07,00,10.80
2010,08,23,07,01,10.80
2010,08,23,07,02,10.90
2010,08,23,07,03,10.90
2010,08,23,07,04,10.90
2010,08,23,07,05,10.90
2010,08,23,07,06,10.90
2010,08,23,07,07,11.00
2010,08,23,07,08,11.00
2010,08,23,07,09,11.10
2010,08,23,07,10,11.10
2010,08,23,07,11,11.10
2010,08,23,07,12,11.10
2010,08,23,07,13,11.20
2010,08,23,07,14,11.20
2010,08,23,07,15,11.30
2010,08,23,07,16,11.30
2010,08,23,07,17,11.30
2010,08,23,07,18,11.40
2010,08,23,07,19,11.40
2010,08,23,07,20,11.50
2010,08,23,07,21,11.50
2010,08,23,07,22,11.60
2010,08,23,07,23,11.60
2010,08,23,07,24,11.70
2010,08,23,07,25,11.70
2010,08,23,07,26,11.80
2010,08,23,07,27,11.80
2010,08,23,07,28,11.80
2010,08,23,07,29,11.90
2010,08,23,07,30,11.90
2010,08,23,07,31,12.00
2010,08,23,07,32,12.00
2010,08,23,07,33,12.10
2010,08,23,07,34,12.20
2010,08,23,07,35,12.20
2010,08,23,07,36,12.30
2010,08,23,07,37,12.40
2010,08,23,07,38,12.40
2010,08,23,07,39,12.50
2010,08,23,07,40,12.60
2010,08,23,07,41,12.60
2010,08,23,07,42,12.70
2010,08,23,07,43,12.80
2010,08,23,07,44,12.90
2010,08,23,07,45,12.90
2010,08,23,07,46,13.00
2010,08,23,07,47,13.10
2010,08,23,07,48,13.20
2010,08,23,07,49,13.20
2010,08,23,07,50,13.30
2010,08,23,07,51,13.40
2010,08,23,07,52,13.50
2010,08,23,07,53,13.60
2010,08,23,07,54,13.70
2010,08,23,07,55,13.80
2010,08,23,07,56,13.80
2010,08,23,07,57,13.90
2010,08,23,07,58,14.00
2010,08,23,07,59,14.10
2010,08,23,08,00,14.20
2010,08,23,08,01,14.30
2010,08,23,08,02,14.50
2010,08,23,08,03,14.70
2010,08,23,08,04,14.90
2010,08,23,08,05,15.00
2010,08,23,08,06,15.10
2010,08,23,08,07,15.30
2010,08,23,08,08,15.50
2010,08,23,08,09,15.50
2010,08,23,08,10,15.60
2010,08,23,08,11,15.70
2010,08,23,08,12,15.70
2010,08,23,08,13,15.60
2010,08,23,08,14,15.50
2010,08,23,08,15,15.30
2010,08,23,08,16,15.30
2010,08,23,08,17,15.20
2010,08,23,08,18,15.20
2010,08,23,08,19,15.20
2010,08,23,08,20,15.20
2010,08,23,08,21,15.10
2010,08,23,08,22,15.10
2010,08,23,08,23,15.10
2010,08,23,08,24,15.00
2010,08,23,08,25,15.00
2010,08,23,08,26,15.00
2010,08,23,08,27,15.00
2010,08,23,08,28,15.00
2010,08,23,08,29,15.00
2010,08,23,08,30,15.10
2010,08,23,08,31,15.20
2010,08,23,08,32,15.30
2010,08,23,08,33,15.30
2010,08,23,08,34,15.30
2010,08,23,08,35,15.40
2010,08,23,08,36,15.50
2010,08,23,08,37,15.60
2010,08,23,08,38,15.70
2010,08,23,08,39,15.80
2010,08,23,08,40,15.90
2010,08,23,08,41,15.80
2010,08,23,08,42,15.80
2010,08,23,08,43,15.90
2010,08,23,08,44,15.80
2010,08,23,08,45,15.70
2010,08,23,08,46,15.70
2010,08,23,08,47,15.60
2010,08,23,08,48,15.60
2010,08,23,08,49,15.60
2010,08,23,08,50,15.60
2010,08,23,08,51,15.60
2010,08,23,08,52,15.50
2010,08,23,08,53,15.50
2010,08,23,08,54,15.50
2010,08,23,08,55,15.40
2010,08,23,08,56,15.40
2010,08,23,08,57,15.40
2010,08,23,08,58,15.40
2010,08,23,08,59,15.30
2010,08,23,09,00,15.30
2010,08,23,09,01,15.30
2010,08,23,09,02,15.30
2010,08,23,09,03,15.30
2010,08,23,09,04,15.40
2010,08,23,09,05,15.50
2010,08,23,09,06,15.70
2010,08,23,09,07,15.80
2010,08,23,09,08,15.90
2010,08,23,09,09,16.00
2010,08,23,09,10,16.00
2010,08,23,09,11,16.00
2010,08,23,09,12,16.00
2010,08,23,09,13,15.90
2010,08,23,09,14,16.00
2010,08,23,09,15,16.00
2010,08,23,09,16,16.00
2010,08,23,09,17,16.00
2010,08,23,09,18,15.90
2010,08,23,09,19,16.00
2010,08,23,09,20,16.00
2010,08,23,09,21,16.00
2010,08,23,09,22,16.10
2010,08,23,09,23,16.20
2010,08,23,09,24,16.30
2010,08,23,09,25,16.40
2010,08,23,09,26,16.40
2010,08,23,09,27,16.40
2010,08,23,09,28,16.40
2010,08,23,09,29,16.40
2010,08,23,09,30,16.50
2010,08,23,09,31,16.60
2010,08,23,09,32,16.60
2010,08,23,09,33,16.60
2010,08,23,09,34,16.60
2010,08,23,09,35,16.60
2010,08,23,09,36,16.60
2010,08,23,09,37,16.60
2010,08,23,09,38,16.70
2010,08,23,09,39,16.80
2010,08,23,09,40,16.80
2010,08,23,09,41,17.00
2010,08,23,09,42,17.00
2010,08,23,09,43,16.90
2010,08,23,09,44,16.90
2010,08,23,09,45,17.00
2010,08,23,09,46,17.10
2010,08,23,09,47,17.10
2010,08,23,09,48,17.20
2010,08,23,09,49,17.10
2010,08,23,09,50,17.10
2010,08,23,09,51,17.10
2010,08,23,09,52,17.10
2010,08,23,09,53,17.10
2010,08,23,09,54,17.10
2010,08,23,09,55,17.10
2010,08,23,09,56,17.10
2010,08,23,09,57,17.10
2010,08,23,09,58,17.00
2010,08,23,09,59,16.90
2010,08,23,10,00,16.80
2010,08,23,10,01,16.80
2010,08,23,10,02,16.80
2010,08,23,10,03,16.80
2010,08,23,10,04,16.90
2010,08,23,10,05,16.90
2010,08,23,10,06,17.00
2010,08,23,10,07,17.00
2010,08,23,10,08,17.00
2010,08,23,10,09,17.00
2010,08,23,10,10,17.00
2010,08,23,10,11,17.10
2010,08,23,10,12,17.10
2010,08,23,10,13,17.20
2010,08,23,10,14,17.20
2010,08,23,10,15,17.30
2010,08,23,10,16,17.30
2010,08,23,10,17,17.40
2010,08,23,10,18,17.60
2010,08,23,10,19,17.70
2010,08,23,10,20,17.70
2010,08,23,10,21,17.80
2010,08,23,10,22,17.80
2010,08,23,10,23,17.80
2010,08,23,10,24,17.90
2010,08,23,10,25,18.10
2010,08,23,10,26,18.10
2010,08,23,10,27,18.30
2010,08,23,10,28,18.30
2010,08,23,10,29,18.40
2010,08,23,10,30,18.40
2010,08,23,10,31,18.30
2010,08,23,10,32,18.20
2010,08,23,10,33,18.20
2010,08,23,10,34,18.10
2010,08,23,10,35,18.00
2010,08,23,10,36,17.90
2010,08,23,10,37,17.80
2010,08,23,10,38,17.80
2010,08,23,10,39,17.90
2010,08,23,10,40,18.00
2010,08,23,10,41,18.10
2010,08,23,10,42,18.30
2010,08,23,10,43,18.50
2010,08,23,10,44,18.60
2010,08,23,10,45,18.50
2010,08,23,10,46,18.50
2010,08,23,10,47,18.30
2010,08,23,10,48,18.10
2010,08,23,10,49,17.90
2010,08,23,10,50,17.80
2010,08,23,10,51,17.70
2010,08,23,10,52,17.70
2010,08,23,10,53,17.70
2010,08,23,10,54,17.70
2010,08,23,10,55,17.70
2010,08,23,10,56,17.70
2010,08,23,10,57,17.80
2010,08,23,10,58,17.90
2010,08,23,10,59,18.10
2010,08,23,11,00,18.20
2010,08,23,11,01,18.30
2010,08,23,11,02,18.30
2010,08,23,11,03,18.40
2010,08,23,11,04,18.50
2010,08,23,11,05,18.60
2010,08,23,11,06,18.50
2010,08,23,11,07,18.40
2010,08,23,11,08,18.50
2010,08,23,11,09,18.40
2010,08,23,11,10,18.40
2010,08,23,11,11,18.40
2010,08,23,11,12,18.30
2010,08,23,11,13,18.20
2010,08,23,11,14,18.30
2010,08,23,11,15,18.40
2010,08,23,11,16,18.50
2010,08,23,11,17,18.60
2010,08,23,11,18,18.60
2010,08,23,11,19,18.60
2010,08,23,11,20,18.60
2010,08,23,11,21,18.50
2010,08,23,11,22,18.50
2010,08,23,11,23,18.60
2010,08,23,11,24,18.50
2010,08,23,11,25,18.60
2010,08,23,11,26,18.60
2010,08,23,11,27,18.50
2010,08,23,11,28,18.40
2010,08,23,11,29,18.40
2010,08,23,11,30,18.50
2010,08,23,11,31,18.70
2010,08,23,11,32,18.80
2010,08,23,11,33,18.80
2010,08,23,11,34,18.90
2010,08,23,11,35,18.90
2010,08,23,11,36,19.00
2010,08,23,11,37,19.10
2010,08,23,11,38,19.20
2010,08,23,11,39,19.10
2010,08,23,11,40,19.00
2010,08,23,11,41,19.00
2010,08,23,11,42,19.00
2010,08,23,11,43,19.10
2010,08,23,11,44,19.20
2010,08,23,11,45,19.20
2010,08,23,11,46,19.20
2010,08,23,11,47,19.30
2010,08,23,11,48,19.20
2010,08,23,11,49,19.10
2010,08,23,11,50,19.00
2010,08,23,11,51,18.80
2010,08,23,11,52,18.70
2010,08,23,11,53,18.80
2010,08,23,11,54,19.00
2010,08,23,11,55,19.20
2010,08,23,11,56,19.20
2010,08,23,11,57,19.10
2010,08,23,11,58,18.90
2010,08,23,11,59,18.80
2010,08,23,12,00,18.70
2010,08,23,12,01,18.70
2010,08,23,12,02,18.70
2010,08,23,12,03,18.80
2010,08,23,12,04,18.90
2010,08,23,12,05,19.10
2010,08,23,12,06,19.20
2010,08,23,12,07,19.10
2010,08,23,12,08,19.20
2010,08,23,12,09,19.20
2010,08,23,12,10,19.10
2010,08,23,12,11,19.10
2010,08,23,12,12,19.00
2010,08,23,12,13,18.80
2010,08,23,12,14,18.80
2010,08,23,12,15,19.00
2010,08,23,12,16,19.10
2010,08,23,12,17,19.20
2010,08,23,12,18,19.20
2010,08,23,12,19,19.00
2010,08,23,12,20,18.90
2010,08,23,12,21,18.80
2010,08,23,12,22,18.80
2010,08,23,12,23,18.80
2010,08,23,12,24,18.80
2010,08,23,12,25,18.90
2010,08,23,12,26,18.90
2010,08,23,12,27,18.90
2010,08,23,12,28,18.90
2010,08,23,12,29,18.90
2010,08,23,12,30,18.90
2010,08,23,12,31,19.10
2010,08,23,12,32,19.10
2010,08,23,12,33,19.10
2010,08,23,12,34,19.10
2010,08,23,12,35,19.10
2010,08,23,12,36,19.20
2010,08,23,12,37,19.40
2010,08,23,12,38,19.40
2010,08,23,12,39,19.50
2010,08,23,12,40,19.70
2010,08,23,12,41,19.70
2010,08,23,12,42,19.50
2010,08,23,12,43,19.30
2010,08,23,12,44,19.20
2010,08,23,12,45,19.20
2010,08,23,12,46,19.30
2010,08,23,12,47,19.50
2010,08,23,12,48,19.60
2010,08,23,12,49,19.70
2010,08,23,12,50,19.70
2010,08,23,12,51,19.70
2010,08,23,12,52,19.80
2010,08,23,12,53,19.90
2010,08,23,12,54,20.00
2010,08,23,12,55,20.10
2010,08,23,12,56,20.10
2010,08,23,12,57,20.20
2010,08,23,12,58,20.20
2010,08,23,12,59,20.20
2010,08,23,13,00,20.00
2010,08,23,13,01,19.90
2010,08,23,13,02,19.90
2010,08,23,13,03,20.00
2010,08,23,13,04,20.10
2010,08,23,13,05,20.30
2010,08,23,13,06,20.30
2010,08,23,13,07,20.30
2010,08,23,13,08,20.20
2010,08,23,13,09,20.10
2010,08,23,13,10,20.10
2010,08,23,13,11,20.10
2010,08,23,13,12,20.00
2010,08,23,13,13,19.90
2010,08,23,13,14,19.80
2010,08,23,13,15,19.80
2010,08,23,13,16,19.60
2010,08,23,13,17,19.50
2010,08,23,13,18,19.50
2010,08,23,13,19,19.60
2010,08,23,13,20,19.60
2010,08,23,13,21,19.60
2010,08,23,13,22,19.70
2010,08,23,13,23,19.70
2010,08,23,13,24,19.80
2010,08,23,13,25,19.90
2010,08,23,13,26,19.90
2010,08,23,13,27,19.90
2010,08,23,13,28,19.80
2010,08,23,13,29,19.70
2010,08,23,13,30,19.70
2010,08,23,13,31,19.70
2010,08,23,13,32,19.80
2010,08,23,13,33,20.00
2010,08,23,13,34,20.20
2010,08,23,13,35,20.30
2010,08,23,13,36,20.30
2010,08,23,13,37,20.40
2010,08,23,13,38,20.40
2010,08,23,13,39,20.40
2010,08,23,13,40,20.40
2010,08,23,13,41,20.40
2010,08,23,13,42,20.40
2010,08,23,13,43,20.30
2010,08,23,13,44,20.30
2010,08,23,13,45,20.40
2010,08,23,13,46,20.40
2010,08,23,13,47,20.40
2010,08,23,13,48,20.40
2010,08,23,13,49,20.40
2010,08,23,13,50,20.30
2010,08,23,13,51,20.40
2010,08,23,13,52,20.50
2010,08,23,13,53,20.60
2010,08,23,13,54,20.70
2010,08,23,13,55,20.70
2010,08,23,13,56,20.60
2010,08,23,13,57,20.60
2010,08,23,13,58,20.80
2010,08,23,13,59,21.00
2010,08,23,14,00,21.10
2010,08,23,14,01,21.10
2010,08,23,14,02,21.10
2010,08,23,14,03,20.90
2010,08,23,14,04,20.80
2010,08,23,14,05,20.80
2010,08,23,14,06,20.60
2010,08,23,14,07,20.60
2010,08,23,14,08,20.60
2010,08,23,14,09,20.70
2010,08,23,14,10,20.90
2010,08,23,14,11,21.00
2010,08,23,14,12,20.90
2010,08,23,14,13,20.80
2010,08,23,14,14,20.80
2010,08,23,14,15,20.80
2010,08,23,14,16,20.90
2010,08,23,14,17,21.00
2010,08,23,14,18,21.10
2010,08,23,14,19,21.10
2010,08,23,14,20,21.00
2010,08,23,14,21,20.90
2010,08,23,14,22,20.90
2010,08,23,14,23,20.90
2010,08,23,14,24,20.90
2010,08,23,14,25,21.00
2010,08,23,14,26,21.10
2010,08,23,14,27,21.20
2010,08,23,14,28,21.30
2010,08,23,14,29,21.30
2010,08,23,14,30,21.40
2010,08,23,14,31,21.50
2010,08,23,14,32,21.60
2010,08,23,14,33,21.50
2010,08,23,14,34,21.60
2010,08,23,14,35,21.60
2010,08,23,14,36,21.50
2010,08,23,14,37,21.40
2010,08,23,14,38,21.40
2010,08,23,14,39,21.30
2010,08,23,14,40,21.30
2010,08,23,14,41,21.20
2010,08,23,14,42,21.20
2010,08,23,14,43,21.20
2010,08,23,14,44,21.10
2010,08,23,14,45,21.00
2010,08,23,14,46,21.10
2010,08,23,14,47,21.20
2010,08,23,14,48,21.20
2010,08,23,14,49,21.20
2010,08,23,14,50,21.30
2010,08,23,14,51,21.40
2010,08,23,14,52,21.30
2010,08,23,14,53,21.30
2010,08,23,14,54,21.30
2010,08,23,14,55,21.30
2010,08,23,14,56,21.30
2010,08,23,14,57,21.40
2010,08,23,14,58,21.50
2010,08,23,14,59,21.60
2010,08,23,15,00,21.60
2010,08,23,15,01,21.70
2010,08,23,15,02,21.60
2010,08,23,15,03,21.30
2010,08,23,15,04,21.10
2010,08,23,15,05,21.10
2010,08,23,15,06,21.10
2010,08,23,15,07,21.10
2010,08,23,15,08,21.00
2010,08,23,15,09,21.00
2010,08,23,15,10,20.90
2010,08,23,15,11,21.00
2010,08,23,15,12,21.10
2010,08,23,15,13,21.20
2010,08,23,15,14,21.30
2010,08,23,15,15,21.30
2010,08,23,15,16,21.30
2010,08,23,15,17,21.40
2010,08,23,15,18,21.50
2010,08,23,15,19,21.50
2010,08,23,15,20,21.50
2010,08,23,15,21,21.50
2010,08,23,15,22,21.60
2010,08,23,15,23,21.70
2010,08,23,15,24,21.70
2010,08,23,15,25,21.60
2010,08,23,15,26,21.50
2010,08,23,15,27,21.60
2010,08,23,15,28,21.60
2010,08,23,15,29,21.60
2010,08,23,15,30,21.50
2010,08,23,15,31,21.40
2010,08,23,15,32,21.30
2010,08,23,15,33,21.40
2010,08,23,15,34,21.40
2010,08,23,15,35,21.30
2010,08,23,15,36,21.20
2010,08,23,15,37,21.20
2010,08,23,15,38,21.10
2010,08,23,15,39,21.10
2010,08,23,15,40,21.10
2010,08,23,15,41,21.20
2010,08,23,15,42,21.30
2010,08,23,15,43,21.40
2010,08,23,15,44,21.50
2010,08,23,15,45,21.50
2010,08,23,15,46,21.50
2010,08,23,15,47,21.40
2010,08,23,15,48,21.30
2010,08,23,15,49,21.30
2010,08,23,15,50,21.30
2010,08,23,15,51,21.30
2010,08,23,15,52,21.30
2010,08,23,15,53,21.30
2010,08,23,15,54,21.30
2010,08,23,15,55,21.30
2010,08,23,15,56,21.30
2010,08,23,15,57,21.50
2010,08,23,15,58,21.60
2010,08,23,15,59,21.50
2010,08,23,16,00,21.50
2010,08,23,16,01,21.50
2010,08,23,16,02,21.60
2010,08,23,16,03,21.60
2010,08,23,16,04,21.50
2010,08,23,16,05,21.40
2010,08,23,16,06,21.20
2010,08,23,16,07,21.20
2010,08,23,16,08,21.20
2010,08,23,16,09,21.10
2010,08,23,16,10,21.20
2010,08,23,16,11,21.20
2010,08,23,16,12,21.30
2010,08,23,16,13,21.30
2010,08,23,16,14,21.40
2010,08,23,16,15,21.40
2010,08,23,16,16,21.40
2010,08,23,16,17,21.40
2010,08,23,16,18,21.40
2010,08,23,16,19,21.40
2010,08,23,16,20,21.40
2010,08,23,16,21,21.30
2010,08,23,16,22,21.20
2010,08,23,16,23,21.10
2010,08,23,16,24,21.00
2010,08,23,16,25,20.90
2010,08,23,16,26,20.80
2010,08,23,16,27,20.80
2010,08,23,16,28,20.80
2010,08,23,16,29,20.80
2010,08,23,16,30,20.90
2010,08,23,16,31,20.90
2010,08,23,16,32,20.90
2010,08,23,16,33,21.00
2010,08,23,16,34,21.00
2010,08,23,16,35,21.10
2010,08,23,16,36,20.90
2010,08,23,16,37,20.80
2010,08,23,16,38,20.80
2010,08,23,16,39,20.90
2010,08,23,16,40,20.90
2010,08,23,16,41,21.00
2010,08,23,16,42,21.00
2010,08,23,16,43,21.00
2010,08,23,16,44,20.90
2010,08,23,16,45,20.90
2010,08,23,16,46,20.90
2010,08,23,16,47,21.00
2010,08,23,16,48,21.20
2010,08,23,16,49,21.30
2010,08,23,16,50,21.30
2010,08,23,16,51,21.30
2010,08,23,16,52,21.20
2010,08,23,16,53,21.10
2010,08,23,16,54,21.10
2010,08,23,16,55,21.10
2010,08,23,16,56,21.00
2010,08,23,16,57,20.90
2010,08,23,16,58,20.90
2010,08,23,16,59,20.80
2010,08,23,17,00,20.80
2010,08,23,17,01,20.80
2010,08,23,17,02,20.80
2010,08,23,17,03,20.80
2010,08,23,17,04,20.70
2010,08,23,17,05,20.70
2010,08,23,17,06,20.70
2010,08,23,17,07,20.70
2010,08,23,17,08,20.70
2010,08,23,17,09,20.70
2010,08,23,17,10,20.70
2010,08,23,17,11,20.70
2010,08,23,17,12,20.70
2010,08,23,17,13,20.70
2010,08,23,17,14,20.70
2010,08,23,17,15,20.70
2010,08,23,17,16,20.80
2010,08,23,17,17,20.80
2010,08,23,17,18,20.90
2010,08,23,17,19,20.90
2010,08,23,17,20,20.90
2010,08,23,17,21,20.90